www.pogodaiklimat.ru

Погода и климат >> Архив погоды >> Россия >> Крым >> Симферополь


АРХИВ ПОГОДЫ в Симферополе

Время (UTC), дата Ветер
(напр.,м/с)
 
Видим.   Явления Облачность Т
(С)
Тd
(С)
f
(%)
Тe
(С)
Тes
(С)
Комфортность P
(гПа)
Po
(гПа)
Тmin
(С)
Tmax
(С)
R
(мм)
R24
(мм)
S
(см)
00 23.04 ЮВ 2 10 км 8/0
[Ac trans]
+3.5 +2.3 92 0 0 прохладно 1013.0 990.7
03 23.04 В 2 10 км 10/0
[Ac und]
+3.9 +2.6 91 +1 +1 холодно 1010.4 988.2
06 23.04 СВ 3 6000 м слабый ливневой дождь 10/10 800 м
[Cb calv]
+2.2 +1.2 93 -2 -2 очень
холодно
1010.4 988.0 +2.2 2
09 23.04 СВ 4 1900 м сильный снег {ливн. осадки} 10/6 600 м
[Frnb As op]
+0.6 +0.2 97 -5 -4 очень
холодно
1009.8 987.3
12 23.04 З 3 10 км слабый дождь {ливн. осадки, снег} 10/10 800 м
[Frnb Ns]
+2.6 +1.4 92 -2 -2 очень
холодно
1009.3 987.0
15 23.04 ЮЗ 4 10 км слабый дождь {ливн. осадки} 10/8 300 м
[Frnb As op]
+2.8 +2.4 97 -2 -2 очень
холодно
1010.3 988.0
18 23.04 Ю 5 6000 м в посл. час дождь {ливн. осадки} 10/10 120 м
[St]
+4.3 +3.9 97 -1 -1 очень
холодно
1011.2 989.0 +4.4 22
21 23.04 Ю 4 5000 м дымка 10/10 200 м
[St]
+5.3 +4.9 97 +1 +1 прохладно 1012.7 990.6
00 24.04 Ю 4 6000 м дымка 10/10 1350 м
[Sc]
+5.6 +5.0 96 +1 +1 прохладно 1011.9 989.8
03 24.04 З 5 10 км слабый ливневой дождь 10/10 300 м
[Cb calv]
+2.1 +1.4 95 -4 -4 очень
холодно
1013.6 991.2
06 24.04 Ю 4 10 км {ливн. осадки, дождь} 10/6 800 м
[Cb calv As trans]
+5.1 +3.9 92 +1 +2 очень
холодно
1014.8 992.6 +1.8 8
09 24.04 10 км н/о +9.9 +5.5 74 +6 +6 холодно 1016.0 994.1
12 24.04 З 11-14
{15}
10 км в посл. час гроза 8/8 840 м
[Cb calv]
+9.5 +4.5 71 +5 +5 очень
холодно
1017.5 995.6
15 24.04 З 10 10 км 8/8 1000 м
[Cb calv]
+8.0 +2.7 69 +3 +3 очень
холодно
1019.4 997.3
18 24.04 ЮЗ 4
{13}
10 км 3/0
[Ac trans]
+4.2 +2.1 86 -0 -0 холодно 1022.2 999.7 +10.8
21 24.04 Ю 3 10 км 5/0
[Ac trans]
+4.2 +2.6 89 0 0 холодно 1024.1 1001.6
00 25.04 Ю 4 10 км 8/3 600 м
[Sc Ac trans]
+3.8 +3.1 95 -1 -1 холодно 1024.9 1002.4
03 25.04 Ю 4 10 км в посл. час ливневой дождь 10/4 600 м
[Cb calv Ac und]
+5.6 +4.6 93 +1 +1 холодно 1025.7 1003.3
06 25.04 ЮЗ 6 10 км {ливн. осадки} 5/5 1500 м
[Sc]
+9.1 +4.7 74 +5 +7 прохладно 1027.3 1005.1 +2.9 0.0
09 25.04 10 км н/о +12.1 +1.1 47 +10 +13 по сезону 1027.9 1005.9
12 25.04 З 8-10
{11}
10 км 4/4 1500 м
[Sc]
+13.0 +0.4 42 +10 +12 прохладно 1027.3 1005.4
15 25.04 З 6 10 км 3/0
[Ac trans]
+11.6 +1.8 51 +9 +10 по сезону 1026.5 1004.5
18 25.04 В 3 10 км ясно +7.3 -1.6 53 +5 +5 по сезону 1026.8 1004.5 +13.7
21 25.04 В 3 10 км ясно +5.3 -4.0 51 +3 +3 прохладно 1025.8 1003.3
00 26.04 ЮВ 3 10 км ясно +4.0 -2.8 61 +1 +1 прохладно 1025.1 1002.6
03 26.04 ЮВ 4 10 км ясно +3.7 -4.7 54 -0 -0 холодно 1025.1 1002.5
06 26.04 В 1 10 км ясно +12.7 -6.3 26 +13 +22 тепло 1025.0 1003.1 +2.4
09 26.04 ЮВ 2 10 км ясно +17.3 -5.2 21 +18 +34 опасность
простуды
1024.1 1002.6
12 26.04 Ю 2 10 км ясно +19.9 -5.1 18 +20 +33 опасность
простуды
1022.7 1001.4
15 26.04 З 4 10 км ясно +17.5 -1.7 27 +17 +19 тепло 1022.0 1000.6
18 26.04 штиль 0 10 км ясно +11.7 -1.4 40 +12 +12 тепло 1022.8 1000.9 +20.7
21 26.04 С 2 10 км ясно +6.0 -0.7 62 +4 +4 по сезону 1023.4 1001.1
00 27.04 В 2 10 км ясно +4.1 -1.9 65 +2 +2 по сезону 1022.3 999.8
03 27.04 В 3 10 км ясно +2.5 -4.5 60 -1 -1 очень
холодно
1022.2 999.6
06 27.04 ЮВ 3 10 км ясно +16.2 -3.3 26 +16 +22 тепло 1021.4 999.9 +1.4
09 27.04 З 4 10 км ясно +20.4 +1.8 29 +21 +32 комфорт 1021.0 999.8
12 27.04 СЗ 4 10 км ясно +20.4 +0.8 27 +21 +29 комфорт 1020.5 999.3
15 27.04 З 5 10 км ясно +20.4 +3.6 33 +21 +22 комфорт 1019.6 998.4
18 27.04 СВ 1 10 км ясно +13.3 -0.7 38 +14 +14 тепло 1021.0 999.3 +21.9
21 27.04 ЮВ 5 10 км ясно +8.6 +1.3 60 +5 +5 по сезону 1020.7 998.6
00 28.04 Ю 2 10 км ясно +9.1 -1.6 47 +8 +8 тепло 1020.1 998.1
03 28.04 В 3 10 км ясно +6.5 +0.8 67 +4 +4 прохладно 1020.3 998.1
06 28.04 СВ 3 10 км ясно +18.3 +5.2 42 +19 +25 тепло 1019.1 997.8 +5.3
09 28.04 СВ 5 10 км ясно +22.9 +4.9 31 +23 +32 комфорт 1017.7 996.8
12 28.04 С 3
{10}
10 км ясно +24.2 +5.5 30 +24 +35 комфорт 1016.4 995.6
15 28.04 З 5 10 км ясно +18.3 +3.0 36 +18 +19 тепло 1017.5 996.2
18 28.04 ЮЗ 3 10 км 3/0
[Ci fib]
+13.0 +2.8 50 +12 +12 тепло 1018.2 996.5 +24.7
21 28.04 В 2 10 км ясно +10.2 +2.8 60 +9 +9 по сезону 1017.9 996.0
00 29.04 В 4 10 км ясно +8.6 +2.4 65 +6 +6 по сезону 1017.0 995.0
03 29.04 В 2 10 км ясно +7.6 +1.9 67 +6 +6 по сезону 1016.9 994.8
06 29.04 СВ 2 10 км ясно +18.2 +4.7 41 +19 +26 тепло 1016.4 995.1 +7.0
09 29.04 СВ 4 10 км ясно +23.5 +4.0 28 +23 +34 комфорт 1015.4 994.5
12 29.04 СВ 3
{10}
10 км ясно +25.4 +5.1 27 +25 +35 комфорт 1014.1 993.4
15 29.04 З 5 10 км ясно +17.8 +5.4 44 +17 +19 тепло 1015.4 994.1
18 29.04 Ю 3 10 км 1/0
[Ci fib]
+10.2 +5.8 74 +8 +8 по сезону 1016.5 994.7 +25.5

 

Местоположение метеостанции Симферополь (Крым, Россия): широта 45.03 долгота 33.97 высота над уровнем моря 181 м.

В архиве по умолчанию представлена погода в Симферополе за последнюю неделю. Архивные данные за месяц целиком и за предыдущие месяцы, начиная с января 2011 года, Вы можете получить, выбрав интересующий диапазон дат из раскрывающегося списка и нажав кнопку "Ввод!".

Внимание! Время в таблицах - всемирное. Для получения местного времени необходимо прибавить поправку, которая в Симферополе равна 3 ч.

Смотрите также архив погоды в соседних городах и на ближайших метеорологических станциях:

Погода в Белогорске (Крым, Россия) (50 км)
Погода в Евпатории (Крым, Россия) (50 км)
Погода в Алуште (Крым, Россия) (52 км)
Погода в Севастополе (город Севастополь, Россия) (57 км)
Погода в Клепинино (Крым, Россия) (58 км)
Погода в Никитском саду (Крым, Россия) (61 км)
Погода в Ай-Петри (Крым, Россия) (63 км)
Погода в Ялте (Крым, Россия) (63 км)
Погода в Херсонесском Маяке (город Севастополь, Россия) (68 км)
Погода в Стрелковом (Херсонская область, Украина) (74 км)

Пояснения к столбцам:

Ветер - указаны скорость ветра в м/с - средняя за 10 мин, порывы в срок и между сроками (в фигурных скобках) и направление, откуда дует ветер: С - северный, СВ - северо-восточный, В - восточный, ЮВ - юго-восточный, Ю - южный, ЮЗ - юго-западный, З - западный, СЗ - северо-западный.
Видимость - горизонтальная дальность видимости в метрах или километрах. При видимости от 1 до 10 км при отсутствии осадков обычно наблюдается дымка, при ухудшении видимости до 1 км и менее - туман. В сухую погоду видимость может ухудшаться дымом, пылью или мглою.
Явления - указаны атмосферные явления, наблюдавшиеся в срок или в последний час перед сроком; фигурными скобками обозначены явления, наблюдавшиеся между сроками (за 1-3 часа до срока); квадратными скобками обозначены град или гололедные отложения с указанием их диаметра в мм.
Облачность - указаны через наклонную черту общая и нижняя облачность в баллах и высота нижней границы облаков в метрах; квадратными скобками обозначены формы облаков: Ci - перистые, Cs - перисто-слоистые, Cc - перисто-кучевые, Ac - высококучевые, As - высокослоистые, Sc - слоисто-кучевые, Ns - слоисто-дождевые, Cu - кучевые, Cb - кучево-дождевые. Подробнее классификацию облаков см. в Атласе облаков (PDF).
T - Температура воздуха - температура, измеренная на высоте 2 м над землей.
Td - Температура точки росы - температура, при понижении до которой содержащийся в воздухе водяной пар достигнет насыщения.
f - Относительная влажность воздуха - влажноcть воздуха, измеренная на высоте 2 м над землей.
Te - Эффективная температура - температура, которую ощущает одетый по сезону человек в тени. Характеристика душности погоды. При расчете учитывается влияние влажности воздуха и скорости ветра на теплоощущения человека.
Tes - Эффективная температура на солнце - температура, которую ощущает человек, с поправкой на солнечный нагрев. Характеристика знойности погоды. Зависит от высоты солнца над горизонтом, облачности и скорости ветра. Ночью, в пасмурную погоду, а также при ветре 12 м/с и более поправка равна нулю.
P - Атмосферное давление - приведенное к уровню моря атмосферное давление.
Po - Атмосферное давление - измеренное на уровне метеостанции атмосферное давление.
Tmin - Минимальная температура - минимум температуры воздуха на высоте 2 м над землей.
Tmax - Максимальная температура - максимум температуры воздуха на высоте 2 м над землей.
R - Количество осадков - Количество выпавших осадков за период времени, мм. При наведении курсора мыши на число - период времени, за который выпало указанное количество осадков.
R24 - Количество осадков - Количество выпавших осадков за 24 часа, мм.
S - Снежный покров - Высота снежного покрова, см. При наведении курсора мыши на число - состояние снежного покрова и степень покрытия местности в баллах.